Time,TemperatureF,DewpointF,PressureIn,WindDirection,WindDirectionDegrees,WindSpeedMPH,WindSpeedGustMPH,Humidity,HourlyPrecipIn,Conditions,Clouds,dailyrainin,SolarRadiationWatts/m^2,SoftwareType,DateUTC
2013-01-29 00:01:00,13.0,12.0,-100.00,NW,315,2.0,3.0,95,0.00,,,0.00,0.000000,,2013-01-29 07:01:00,
2013-01-29 00:11:00,13.0,12.0,-100.00,NW,315,2.0,3.0,95,0.00,,,0.00,0.000000,,2013-01-29 07:11:00,
2013-01-29 00:21:00,13.0,12.0,-100.00,NW,315,2.0,3.0,95,0.00,,,0.00,0.000000,,2013-01-29 07:21:00,
2013-01-29 00:42:00,16.0,15.0,-100.00,WSW,258,3.0,5.0,95,0.00,,,0.00,0.000000,,2013-01-29 07:42:00,
2013-01-29 00:52:00,16.0,15.0,-100.00,WSW,258,3.0,5.0,95,0.00,,,0.00,0.000000,,2013-01-29 07:52:00,
2013-01-29 01:02:00,16.0,15.0,-100.00,WSW,258,3.0,5.0,95,0.00,,,0.00,0.000000,,2013-01-29 08:02:00,
2013-01-29 01:11:00,16.0,15.0,-100.00,WSW,258,3.0,5.0,95,0.00,,,0.00,0.000000,,2013-01-29 08:11:00,
2013-01-29 01:21:00,16.0,15.0,-100.00,WSW,258,3.0,5.0,95,0.00,,,0.00,0.000000,,2013-01-29 08:21:00,
2013-01-29 01:42:00,14.0,12.0,-100.00,West,269,4.0,7.0,93,0.00,,,0.00,0.000000,,2013-01-29 08:42:00,
2013-01-29 01:52:00,14.0,12.0,-100.00,West,269,4.0,7.0,93,0.00,,,0.00,0.000000,,2013-01-29 08:52:00,
2013-01-29 02:01:00,14.0,12.0,-100.00,West,269,4.0,7.0,93,0.00,,,0.00,0.000000,,2013-01-29 09:01:00,
2013-01-29 02:11:00,14.0,12.0,-100.00,West,269,4.0,7.0,93,0.00,,,0.00,0.000000,,2013-01-29 09:11:00,
2013-01-29 02:21:00,14.0,12.0,-100.00,West,269,4.0,7.0,93,0.00,,,0.00,0.000000,,2013-01-29 09:21:00,
2013-01-29 02:42:00,12.0,9.0,-100.00,West,264,4.0,8.0,86,0.00,,,0.00,0.000000,,2013-01-29 09:42:00,
2013-01-29 02:52:00,12.0,9.0,-100.00,West,264,4.0,8.0,86,0.00,,,0.00,0.000000,,2013-01-29 09:52:00,
2013-01-29 03:01:00,12.0,9.0,-100.00,West,264,4.0,8.0,86,0.00,,,0.00,0.000000,,2013-01-29 10:01:00,
2013-01-29 03:11:00,12.0,9.0,-100.00,West,264,4.0,8.0,86,0.00,,,0.00,0.000000,,2013-01-29 10:11:00,
2013-01-29 03:21:00,12.0,9.0,-100.00,West,264,4.0,8.0,86,0.00,,,0.00,0.000000,,2013-01-29 10:21:00,
2013-01-29 03:42:00,9.0,6.0,-100.00,WNW,292,2.0,5.0,86,0.00,,,0.00,0.000000,,2013-01-29 10:42:00,
2013-01-29 03:52:00,9.0,6.0,-100.00,WNW,292,2.0,5.0,86,0.00,,,0.00,0.000000,,2013-01-29 10:52:00,
2013-01-29 04:02:00,9.0,6.0,-100.00,WNW,292,2.0,5.0,86,0.00,,,0.00,0.000000,,2013-01-29 11:02:00,
2013-01-29 04:11:00,9.0,6.0,-100.00,WNW,292,2.0,5.0,86,0.00,,,0.00,0.000000,,2013-01-29 11:11:00,
2013-01-29 04:21:00,9.0,6.0,-100.00,WNW,292,2.0,5.0,86,0.00,,,0.00,0.000000,,2013-01-29 11:21:00,
2013-01-29 04:22:00,9.0,6.0,-100.00,North,6,2.0,3.0,89,0.00,,,0.00,0.000000,,2013-01-29 11:22:00,
2013-01-29 04:42:00,9.0,6.0,-100.00,North,6,2.0,3.0,89,0.00,,,0.00,0.000000,,2013-01-29 11:42:00,
2013-01-29 04:53:00,9.0,6.0,-100.00,North,6,2.0,3.0,89,0.00,,,0.00,0.000000,,2013-01-29 11:53:00,
2013-01-29 05:02:00,9.0,6.0,-100.00,North,6,2.0,3.0,89,0.00,,,0.00,0.000000,,2013-01-29 12:02:00,
2013-01-29 05:12:00,9.0,6.0,-100.00,North,6,2.0,3.0,89,0.00,,,0.00,0.000000,,2013-01-29 12:12:00,
2013-01-29 05:22:00,7.0,5.0,-100.00,West,267,2.0,3.0,91,0.00,,,0.00,0.000000,,2013-01-29 12:22:00,
2013-01-29 05:43:00,7.0,5.0,-100.00,West,267,2.0,3.0,91,0.00,,,0.00,0.000000,,2013-01-29 12:43:00,
2013-01-29 05:53:00,7.0,5.0,-100.00,West,267,2.0,3.0,91,0.00,,,0.00,0.000000,,2013-01-29 12:53:00,
2013-01-29 06:02:00,7.0,5.0,-100.00,West,267,2.0,3.0,91,0.00,,,0.00,0.000000,,2013-01-29 13:02:00,
2013-01-29 06:12:00,7.0,5.0,-100.00,West,267,2.0,3.0,91,0.00,,,0.00,0.000000,,2013-01-29 13:12:00,
2013-01-29 06:43:00,6.0,4.0,-100.00,West,260,2.0,3.0,91,0.00,,,0.00,0.000000,,2013-01-29 13:43:00,
2013-01-29 06:52:00,6.0,4.0,-100.00,West,260,2.0,3.0,91,0.00,,,0.00,0.000000,,2013-01-29 13:52:00,
2013-01-29 07:02:00,6.0,4.0,-100.00,West,260,2.0,3.0,91,0.00,,,0.00,0.000000,,2013-01-29 14:02:00,
2013-01-29 07:12:00,6.0,4.0,-100.00,West,260,2.0,3.0,91,0.00,,,0.00,0.000000,,2013-01-29 14:12:00,
2013-01-29 07:21:00,6.0,4.0,-100.00,West,260,2.0,3.0,91,0.00,,,0.00,0.000000,,2013-01-29 14:21:00,
2013-01-29 07:22:00,5.0,3.0,-100.00,West,275,2.0,3.0,90,0.00,,,0.00,1.000000,,2013-01-29 14:22:00,
2013-01-29 07:43:00,5.0,3.0,-100.00,West,275,2.0,3.0,90,0.00,,,0.00,1.000000,,2013-01-29 14:43:00,
2013-01-29 07:53:00,5.0,3.0,-100.00,West,275,2.0,3.0,90,0.00,,,0.00,1.000000,,2013-01-29 14:53:00,
2013-01-29 08:02:00,5.0,3.0,-100.00,West,275,2.0,3.0,90,0.00,,,0.00,1.000000,,2013-01-29 15:02:00,
2013-01-29 08:12:00,5.0,3.0,-100.00,West,275,2.0,3.0,90,0.00,,,0.00,1.000000,,2013-01-29 15:12:00,
2013-01-29 08:22:00,7.0,4.0,-100.00,NW,306,2.0,3.0,89,0.00,,,0.00,35.000000,,2013-01-29 15:22:00,
2013-01-29 08:43:00,7.0,4.0,-100.00,NW,306,2.0,3.0,89,0.00,,,0.00,35.000000,,2013-01-29 15:43:00,
2013-01-29 08:53:00,7.0,4.0,-100.00,NW,306,2.0,3.0,89,0.00,,,0.00,35.000000,,2013-01-29 15:53:00,
2013-01-29 09:02:00,7.0,4.0,-100.00,NW,306,2.0,3.0,89,0.00,,,0.00,35.000000,,2013-01-29 16:02:00,
2013-01-29 09:12:00,7.0,4.0,-100.00,NW,306,2.0,3.0,89,0.00,,,0.00,35.000000,,2013-01-29 16:12:00,
2013-01-29 09:22:00,9.0,6.0,-100.00,NW,306,3.0,5.0,86,0.00,,,0.00,90.000000,,2013-01-29 16:22:00,
2013-01-29 09:43:00,9.0,6.0,-100.00,NW,306,3.0,5.0,86,0.00,,,0.00,90.000000,,2013-01-29 16:43:00,
2013-01-29 09:53:00,9.0,6.0,-100.00,NW,306,3.0,5.0,86,0.00,,,0.00,90.000000,,2013-01-29 16:53:00,
2013-01-29 10:03:00,9.0,6.0,-100.00,NW,306,3.0,5.0,86,0.00,,,0.00,90.000000,,2013-01-29 17:03:00,
2013-01-29 10:12:00,9.0,6.0,-100.00,NW,306,3.0,5.0,86,0.00,,,0.00,90.000000,,2013-01-29 17:12:00,
2013-01-29 10:22:00,9.0,5.0,-100.00,NNE,13,1.0,4.0,83,0.00,,,0.00,66.000000,,2013-01-29 17:22:00,
2013-01-29 10:42:00,9.0,5.0,-100.00,NNE,13,1.0,4.0,83,0.00,,,0.00,66.000000,,2013-01-29 17:42:00,
2013-01-29 10:52:00,9.0,5.0,-100.00,NNE,13,1.0,4.0,83,0.00,,,0.00,66.000000,,2013-01-29 17:52:00,
2013-01-29 11:04:00,9.0,5.0,-100.00,NNE,13,1.0,4.0,83,0.00,,,0.00,66.000000,,2013-01-29 18:04:00,
2013-01-29 11:12:00,9.0,5.0,-100.00,NNE,13,1.0,4.0,83,0.00,,,0.00,66.000000,,2013-01-29 18:12:00,
2013-01-29 11:22:00,17.0,9.0,-100.00,North,354,2.0,2.0,71,0.00,,,0.00,111.000000,,2013-01-29 18:22:00,
2013-01-29 11:42:00,17.0,9.0,-100.00,North,354,2.0,2.0,71,0.00,,,0.00,111.000000,,2013-01-29 18:42:00,
2013-01-29 11:52:00,17.0,9.0,-100.00,North,354,2.0,2.0,71,0.00,,,0.00,111.000000,,2013-01-29 18:52:00,
2013-01-29 12:02:00,17.0,9.0,-100.00,North,354,2.0,2.0,71,0.00,,,0.00,111.000000,,2013-01-29 19:02:00,
2013-01-29 12:12:00,17.0,9.0,-100.00,North,354,2.0,2.0,71,0.00,,,0.00,111.000000,,2013-01-29 19:12:00,
2013-01-29 12:22:00,18.0,5.0,-100.00,WNW,290,2.0,4.0,56,0.00,,,0.00,227.000000,,2013-01-29 19:22:00,
2013-01-29 12:42:00,18.0,5.0,-100.00,WNW,290,2.0,4.0,56,0.00,,,0.00,227.000000,,2013-01-29 19:42:00,
2013-01-29 12:52:00,18.0,5.0,-100.00,WNW,290,2.0,4.0,56,0.00,,,0.00,227.000000,,2013-01-29 19:52:00,
2013-01-29 13:02:00,18.0,5.0,-100.00,WNW,290,2.0,4.0,56,0.00,,,0.00,227.000000,,2013-01-29 20:02:00,
2013-01-29 13:12:00,18.0,5.0,-100.00,WNW,290,2.0,4.0,56,0.00,,,0.00,227.000000,,2013-01-29 20:12:00,
2013-01-29 13:22:00,14.0,3.0,-100.00,West,267,8.0,13.0,62,0.00,,,0.00,335.000000,,2013-01-29 20:22:00,
2013-01-29 13:42:00,14.0,3.0,-100.00,West,267,8.0,13.0,62,0.00,,,0.00,335.000000,,2013-01-29 20:42:00,
2013-01-29 13:53:00,14.0,3.0,-100.00,West,267,8.0,13.0,62,0.00,,,0.00,335.000000,,2013-01-29 20:53:00,
2013-01-29 14:03:00,14.0,3.0,-100.00,West,267,8.0,13.0,62,0.00,,,0.00,335.000000,,2013-01-29 21:03:00,
2013-01-29 14:12:00,14.0,3.0,-100.00,West,267,8.0,13.0,62,0.00,,,0.00,335.000000,,2013-01-29 21:12:00,
2013-01-29 14:22:00,13.0,3.0,-100.00,WSW,249,11.0,14.0,65,0.00,,,0.00,633.000000,,2013-01-29 21:22:00,
2013-01-29 14:42:00,13.0,3.0,-100.00,WSW,249,11.0,14.0,65,0.00,,,0.00,633.000000,,2013-01-29 21:42:00,
2013-01-29 14:53:00,13.0,3.0,-100.00,WSW,249,11.0,14.0,65,0.00,,,0.00,633.000000,,2013-01-29 21:53:00,
2013-01-29 15:03:00,13.0,3.0,-100.00,WSW,249,11.0,14.0,65,0.00,,,0.00,633.000000,,2013-01-29 22:03:00,
2013-01-29 15:12:00,13.0,3.0,-100.00,WSW,249,11.0,14.0,65,0.00,,,0.00,633.000000,,2013-01-29 22:12:00,
2013-01-29 15:22:00,13.0,5.0,-100.00,WSW,245,11.0,14.0,71,0.00,,,0.00,603.000000,,2013-01-29 22:22:00,
2013-01-29 15:42:00,13.0,5.0,-100.00,WSW,245,11.0,14.0,71,0.00,,,0.00,603.000000,,2013-01-29 22:42:00,
2013-01-29 15:53:00,13.0,5.0,-100.00,WSW,245,11.0,14.0,71,0.00,,,0.00,603.000000,,2013-01-29 22:53:00,
2013-01-29 16:02:00,13.0,5.0,-100.00,WSW,245,11.0,14.0,71,0.00,,,0.00,603.000000,,2013-01-29 23:02:00,
2013-01-29 16:12:00,13.0,5.0,-100.00,WSW,245,11.0,14.0,71,0.00,,,0.00,603.000000,,2013-01-29 23:12:00,
2013-01-29 16:22:00,10.0,3.0,-100.00,WSW,242,10.0,16.0,71,0.01,,,0.01,498.000000,,2013-01-29 23:22:00,
2013-01-29 16:42:00,10.0,3.0,-100.00,WSW,242,10.0,16.0,71,0.01,,,0.01,498.000000,,2013-01-29 23:42:00,
2013-01-29 16:53:00,10.0,3.0,-100.00,WSW,242,10.0,16.0,71,0.01,,,0.01,498.000000,,2013-01-29 23:53:00,
2013-01-29 17:03:00,10.0,3.0,-100.00,WSW,242,10.0,16.0,71,0.01,,,0.01,498.000000,,2013-01-30 00:03:00,
2013-01-29 17:12:00,10.0,3.0,-100.00,WSW,242,10.0,16.0,71,0.01,,,0.01,498.000000,,2013-01-30 00:12:00,
2013-01-29 17:22:00,7.0,1.0,-100.00,WSW,248,8.0,15.0,77,0.00,,,0.01,63.000000,,2013-01-30 00:22:00,
2013-01-29 17:43:00,7.0,1.0,-100.00,WSW,248,8.0,15.0,77,0.00,,,0.01,63.000000,,2013-01-30 00:43:00,
2013-01-29 17:53:00,7.0,1.0,-100.00,WSW,248,8.0,15.0,77,0.00,,,0.01,63.000000,,2013-01-30 00:53:00,
2013-01-29 18:02:00,7.0,1.0,-100.00,WSW,248,8.0,15.0,77,0.00,,,0.01,63.000000,,2013-01-30 01:02:00,
2013-01-29 18:12:00,7.0,1.0,-100.00,WSW,248,8.0,15.0,77,0.00,,,0.01,63.000000,,2013-01-30 01:12:00,
2013-01-29 18:22:00,7.0,2.0,-100.00,WSW,245,6.0,10.0,79,0.00,,,0.01,2.000000,,2013-01-30 01:22:00,
2013-01-29 18:43:00,7.0,2.0,-100.00,WSW,245,6.0,10.0,79,0.00,,,0.01,2.000000,,2013-01-30 01:43:00,
2013-01-29 18:52:00,7.0,2.0,-100.00,WSW,245,6.0,10.0,79,0.00,,,0.01,2.000000,,2013-01-30 01:52:00,
2013-01-29 19:02:00,7.0,2.0,-100.00,WSW,245,6.0,10.0,79,0.00,,,0.01,2.000000,,2013-01-30 02:02:00,
2013-01-29 19:12:00,7.0,2.0,-100.00,WSW,245,6.0,10.0,79,0.00,,,0.01,2.000000,,2013-01-30 02:12:00,
2013-01-29 19:22:00,6.0,2.0,-100.00,West,278,3.0,9.0,83,0.00,,,0.01,0.000000,,2013-01-30 02:22:00,
2013-01-29 19:42:00,6.0,2.0,-100.00,West,278,3.0,9.0,83,0.00,,,0.01,0.000000,,2013-01-30 02:42:00,
2013-01-29 19:53:00,6.0,2.0,-100.00,West,278,3.0,9.0,83,0.00,,,0.01,0.000000,,2013-01-30 02:53:00,
2013-01-29 20:03:00,6.0,2.0,-100.00,West,278,3.0,9.0,83,0.00,,,0.01,0.000000,,2013-01-30 03:03:00,
2013-01-29 20:11:00,6.0,2.0,-100.00,West,278,3.0,9.0,83,0.00,,,0.01,0.000000,,2013-01-30 03:11:00,
2013-01-29 20:22:00,3.0,0.0,-100.00,WSW,250,5.0,8.0,88,0.00,,,0.01,0.000000,,2013-01-30 03:22:00,
2013-01-29 20:42:00,3.0,0.0,-100.00,WSW,250,5.0,8.0,88,0.00,,,0.01,0.000000,,2013-01-30 03:42:00,
2013-01-29 20:52:00,3.0,0.0,-100.00,WSW,250,5.0,8.0,88,0.00,,,0.01,0.000000,,2013-01-30 03:52:00,
2013-01-29 21:02:00,3.0,0.0,-100.00,WSW,250,5.0,8.0,88,0.00,,,0.01,0.000000,,2013-01-30 04:02:00,
2013-01-29 21:12:00,3.0,0.0,-100.00,WSW,250,5.0,8.0,88,0.00,,,0.01,0.000000,,2013-01-30 04:12:00,
2013-01-29 21:22:00,2.0,0.0,-100.00,WSW,254,3.0,6.0,90,0.00,,,0.01,0.000000,,2013-01-30 04:22:00,
2013-01-29 21:42:00,2.0,0.0,-100.00,WSW,254,3.0,6.0,90,0.00,,,0.01,0.000000,,2013-01-30 04:42:00,
2013-01-29 21:52:00,2.0,0.0,-100.00,WSW,254,3.0,6.0,90,0.00,,,0.01,0.000000,,2013-01-30 04:52:00,
2013-01-29 22:03:00,2.0,0.0,-100.00,WSW,254,3.0,6.0,90,0.00,,,0.01,0.000000,,2013-01-30 05:03:00,
2013-01-29 22:12:00,2.0,0.0,-100.00,WSW,254,3.0,6.0,90,0.00,,,0.01,0.000000,,2013-01-30 05:12:00,
2013-01-29 22:43:00,0.0,-3.0,-100.00,WNW,297,1.0,5.0,89,0.00,,,0.01,0.000000,,2013-01-30 05:43:00,
2013-01-29 22:52:00,0.0,-3.0,-100.00,WNW,297,1.0,5.0,89,0.00,,,0.01,0.000000,,2013-01-30 05:52:00,
2013-01-29 23:02:00,0.0,-3.0,-100.00,WNW,297,1.0,5.0,89,0.00,,,0.01,0.000000,,2013-01-30 06:02:00,
2013-01-29 23:11:00,0.0,-3.0,-100.00,WNW,297,1.0,5.0,89,0.00,,,0.01,0.000000,,2013-01-30 06:11:00,
2013-01-29 23:21:00,0.0,-3.0,-100.00,WNW,297,1.0,5.0,89,0.00,,,0.01,0.000000,,2013-01-30 06:21:00,
2013-01-29 23:42:00,-1.0,-3.0,-100.00,West,280,2.0,3.0,90,0.00,,,0.01,0.000000,,2013-01-30 06:42:00,
2013-01-29 23:52:00,-1.0,-3.0,-100.00,West,280,2.0,3.0,90,0.00,,,0.01,0.000000,,2013-01-30 06:52:00,